• In Belarus
  • List of Countries
  • For 7 days
  • Water Temperature
  • Satellite Maps
  • Weather Map
  • Weather Widgets
  • user-avatar
    Login

    Hourly Weather Solden

    Today, 21 September, Thursday

    Time Temperature Precipitation Wind Pressure Humidity
    00:00 -6°C° 0 mm 2 mps 582 mmHg 85%
    01:00 -6°C° 0 mm 2 mps 581 mmHg 83%
    02:00 -6°C° 0 mm 2 mps 581 mmHg 81%
    03:00 -6°C° 0 mm 2 mps 581 mmHg 79%
    04:00 -4°C° 0 mm 1 mps 581 mmHg 76%
    05:00 -3°C° 0 mm 1 mps 581 mmHg 71%
    06:00 -3°C° 0 mm 1 mps 582 mmHg 66%
    07:00 -3°C° 0 mm 2 mps 582 mmHg 63%
    08:00 +1°C° 0 mm 1 mps 583 mmHg 58%
    09:00 +4°C° 0 mm 1 mps 584 mmHg 52%
    10:00 +7°C° 0 mm 1 mps 586 mmHg 47%
    11:00 +8°C° 0 mm 1 mps 586 mmHg 46%
    12:00 +9°C° 0 mm 1 mps 586 mmHg 44%
    13:00 +10°C° 0 mm 1 mps 586 mmHg 43%
    14:00 +9°C° 0 mm 1 mps 586 mmHg 44%
    15:00 +8°C° 0 mm 2 mps 586 mmHg 46%
    16:00 +8°C° 0 mm 2 mps 585 mmHg 47%
    17:00 +6°C° 0 mm 1 mps 584 mmHg 55%
    18:00 +4°C° 0 mm 1 mps 583 mmHg 64%
    19:00 +1°C° 0 mm 1 mps 582 mmHg 72%
    20:00 +1°C° 0 mm 1 mps 582 mmHg 73%
    21:00 0°C° 0 mm 1 mps 582 mmHg 73%
    22:00 0°C° 0 mm 1 mps 582 mmHg 74%
    23:00 0°C° 0 mm 1 mps 582 mmHg 72%

    Tomorrow, 22 September, Friday

    Time Temperature Precipitation Wind Pressure Humidity
    00:00 0°C° 0 mm 1 mps 582 mmHg 70%
    01:00 0°C° 0 mm 1 mps 583 mmHg 68%
    02:00 0°C° 0 mm 1 mps 582 mmHg 67%
    03:00 0°C° 0 mm 1 mps 582 mmHg 66%
    04:00 0°C° 0 mm 1 mps 582 mmHg 64%
    05:00 0°C° 0 mm 1 mps 583 mmHg 63%
    06:00 +1°C° 0 mm 1 mps 583 mmHg 62%
    07:00 +1°C° 0 mm 1 mps 583 mmHg 61%
    08:00 +4°C° 0 mm 1 mps 585 mmHg 56%
    09:00 +7°C° 0 mm 1 mps 586 mmHg 51%
    10:00 +10°C° 0 mm 1 mps 587 mmHg 47%
    11:00 +11°C° 0 mm 1 mps 588 mmHg 47%
    12:00 +11°C° 0 mm 1 mps 588 mmHg 46%
    13:00 +12°C° 0 mm 2 mps 588 mmHg 46%
    14:00 +12°C° 0 mm 2 mps 588 mmHg 49%
    15:00 +10°C° 0 mm 2 mps 588 mmHg 52%
    16:00 +10°C° 0 mm 2 mps 587 mmHg 55%
    17:00 +7°C° 0 mm 2 mps 586 mmHg 64%
    18:00 +6°C° 0 mm 1 mps 586 mmHg 74%
    19:00 +3°C° 0 mm 1 mps 585 mmHg 83%
    20:00 +3°C° 0 mm 1 mps 585 mmHg 85%
    21:00 +2°C° 0 mm 1 mps 585 mmHg 86%
    22:00 +2°C° 0 mm 1 mps 585 mmHg 88%
    23:00 +2°C° 0 mm 1 mps 585 mmHg 87%

    Day after tomorrow, 23 September, Saturday

    Time Temperature Precipitation Wind Pressure Humidity
    00:00 +1°C° 0 mm 1 mps 585 mmHg 86%
    01:00 +1°C° 0 mm 1 mps 585 mmHg 86%
    02:00 +1°C° 0 mm 1 mps 584 mmHg 84%
    03:00 +1°C° 0 mm 1 mps 584 mmHg 83%
    04:00 +1°C° 0 mm 1 mps 584 mmHg 81%
    05:00 +1°C° 0 mm 1 mps 584 mmHg 78%
    06:00 +2°C° 0 mm 1 mps 585 mmHg 75%
    07:00 +3°C° 0 mm 1 mps 585 mmHg 72%
    08:00 +5°C° 0 mm 1 mps 586 mmHg 65%
    09:00 +7°C° 0 mm 1 mps 587 mmHg 58%
    10:00 +10°C° 0 mm 1 mps 588 mmHg 51%
    11:00 +10°C° 0 mm 1 mps 588 mmHg 49%
    12:00 +11°C° 0 mm 1 mps 588 mmHg 48%
    13:00 +12°C° 0 mm 1 mps 588 mmHg 47%
    14:00 +11°C° 0.1 mm 1 mps 588 mmHg 50%
    15:00 +11°C° 0.1 mm 1 mps 587 mmHg 54%
    16:00 +10°C° 0.1 mm 1 mps 587 mmHg 57%
    17:00 +8°C° 0.2 mm 1 mps 586 mmHg 66%
    18:00 +6°C° 0.2 mm 1 mps 585 mmHg 75%
    19:00 +4°C° 0.2 mm 1 mps 584 mmHg 84%
    20:00 +3°C° 0.1 mm 1 mps 584 mmHg 86%
    21:00 +3°C° 0.1 mm 1 mps 584 mmHg 87%
    22:00 +3°C° 0.1 mm 1 mps 584 mmHg 89%
    23:00 +2°C° 0 mm 1 mps 583 mmHg 89%

    24 September, Sunday

    Time Temperature Precipitation Wind Pressure Humidity
    00:00 +2°C° 0 mm 1 mps 583 mmHg 89%
    01:00 +1°C° 0 mm 1 mps 583 mmHg 90%
    02:00 +1°C° 0 mm 1 mps 583 mmHg 89%
    03:00 +1°C° 0 mm 1 mps 583 mmHg 89%
    04:00 +1°C° 0 mm 1 mps 582 mmHg 88%
    05:00 +1°C° 0 mm 1 mps 583 mmHg 86%
    06:00 +1°C° 0 mm 1 mps 583 mmHg 84%
    07:00 +2°C° 0 mm 1 mps 583 mmHg 83%
    08:00 +4°C° 0 mm 1 mps 584 mmHg 74%
    09:00 +6°C° 0 mm 1 mps 585 mmHg 65%
    10:00 +9°C° 0 mm 1 mps 586 mmHg 56%
    11:00 +9°C° 0 mm 1 mps 586 mmHg 53%
    12:00 +10°C° 0 mm 1 mps 586 mmHg 51%
    13:00 +10°C° 0 mm 1 mps 586 mmHg 49%
    14:00 +10°C° 0.2 mm 1 mps 585 mmHg 52%
    15:00 +8°C° 0.2 mm 2 mps 585 mmHg 55%
    16:00 +8°C° 0.2 mm 2 mps 585 mmHg 57%
    17:00 +7°C° 0.2 mm 1 mps 584 mmHg 64%
    18:00 +5°C° 0.2 mm 1 mps 583 mmHg 71%
    19:00 +3°C° 0.2 mm 1 mps 582 mmHg 78%
    20:00 +3°C° 0.1 mm 1 mps 582 mmHg 80%
    21:00 +2°C° 0.1 mm 1 mps 582 mmHg 81%
    22:00 +2°C° 0.1 mm 1 mps 582 mmHg 83%
    23:00 +2°C° 0 mm 1 mps 582 mmHg 83%

    25 September, Monday

    Time Temperature Precipitation Wind Pressure Humidity
    00:00 +1°C° 0 mm 1 mps 582 mmHg 84%
    01:00 +1°C° 0 mm 1 mps 581 mmHg 84%
    02:00 +1°C° 0 mm 1 mps 581 mmHg 83%
    03:00 0°C° 0 mm 1 mps 581 mmHg 82%
    04:00 0°C° 0 mm 1 mps 581 mmHg 81%
    05:00 0°C° 0 mm 1 mps 581 mmHg 80%
    06:00 +1°C° 0 mm 1 mps 581 mmHg 78%
    07:00 +1°C° 0 mm 1 mps 581 mmHg 76%
    08:00 +3°C° 0 mm 1 mps 583 mmHg 68%
    09:00 +6°C° 0 mm 1 mps 584 mmHg 60%
    10:00 +8°C° 0 mm 1 mps 585 mmHg 52%
    11:00 +9°C° 0 mm 1 mps 585 mmHg 51%
    12:00 +10°C° 0 mm 1 mps 585 mmHg 49%
    13:00 +10°C° 0 mm 1 mps 585 mmHg 48%
    14:00 +10°C° 0.1 mm 1 mps 585 mmHg 51%
    15:00 +9°C° 0.1 mm 1 mps 585 mmHg 53%
    16:00 +9°C° 0.1 mm 1 mps 584 mmHg 56%
    17:00 +7°C° 0.1 mm 1 mps 584 mmHg 66%
    18:00 +5°C° 0.1 mm 1 mps 583 mmHg 76%
    19:00 +2°C° 0.1 mm 1 mps 582 mmHg 86%
    20:00 +2°C° 0 mm 1 mps 582 mmHg 88%
    21:00 +2°C° 0 mm 1 mps 582 mmHg 89%
    22:00 +2°C° 0 mm 1 mps 582 mmHg 91%
    23:00 +2°C° 0 mm 1 mps 582 mmHg 92%

    26 September, Tuesday

    Time Temperature Precipitation Wind Pressure Humidity
    00:00 +2°C° 0 mm 1 mps 582 mmHg 93%
    01:00 +2°C° 0 mm 1 mps 582 mmHg 94%
    02:00 +2°C° 0 mm 1 mps 582 mmHg 94%
    03:00 +2°C° 0 mm 1 mps 582 mmHg 94%
    04:00 +2°C° 0 mm 1 mps 582 mmHg 94%
    05:00 +2°C° 0 mm 1 mps 582 mmHg 93%
    06:00 +2°C° 0 mm 1 mps 582 mmHg 92%
    07:00 +2°C° 0 mm 1 mps 583 mmHg 91%
    08:00 +4°C° 0 mm 1 mps 584 mmHg 82%
    09:00 +6°C° 0 mm 1 mps 585 mmHg 73%
    10:00 +8°C° 0 mm 1 mps 585 mmHg 65%
    11:00 +9°C° 0 mm 1 mps 586 mmHg 61%
    12:00 +10°C° 0 mm 1 mps 586 mmHg 58%
    13:00 +11°C° 0 mm 1 mps 586 mmHg 55%
    14:00 +10°C° 0.1 mm 1 mps 586 mmHg 58%
    15:00 +10°C° 0.1 mm 1 mps 586 mmHg 61%
    16:00 +9°C° 0.1 mm 1 mps 586 mmHg 65%
    17:00 +7°C° 0.1 mm 1 mps 585 mmHg 73%
    18:00 +5°C° 0.1 mm 1 mps 584 mmHg 82%
    19:00 +2°C° 0.1 mm 0 mps 584 mmHg 91%
    20:00 +2°C° 0 mm 0 mps 584 mmHg 91%
    21:00 +3°C° 0 mm 1 mps 584 mmHg 91%
    22:00 +3°C° 0 mm 1 mps 584 mmHg 91%
    23:00 +2°C° 0 mm 1 mps 584 mmHg 91%
    Show more